Date String (YYYY-MM-DD hh:mm:ss) UTC,Instrument flags,absolute air pressure of the measurement (hPa),sample flow rate (lpm),inlet stack bypass flow (lpm),air temperature of the measurement (°C),ambient temperature measured by the external sensor (°C),aerosol sample conditioner tube jacket temperature (°C),OPC LED temperature (°C),internal box temperature (°C),relative humidity of the measurement (%),span deviation,mass concentration of particles derived from Lorenz-Mie calculation of OPC scattering (μg/m³),mass concentration of particles derived from Lorenz-Mie calculation of OPC scattering (μg/m³),mass concentration of particles derived from Lorenz-Mie calculation of OPC scattering (μg/m³)
DateTimeUTC,F1_M11,P_M11,Q1_M11,Q2_M11,T1_M11,T2_M11,T3_M11,T4_M11,T5_M11,U1_M11,ZSPAN_M11,X2_M11,X0_M11,X1_M11
2023-10-18 15:00:00,SystemResetWarning,0833.4,5.01,000.00,028.7,027.5,000.0,037.0,030.4,14.1,0000.0,0003.20,0011.96,0001.50
2023-10-18 15:01:00,SystemResetWarning,0833.1,5.00,000.00,028.7,027.5,000.0,037.0,030.4,14.3,0000.0,0003.19,0012.06,0001.49
2023-10-18 15:02:00,SystemResetWarning,0833.0,4.99,000.00,028.7,027.5,000.0,037.1,030.4,14.3,0000.0,0003.17,0012.86,0001.48
2023-10-18 15:03:00,SystemResetWarning,0833.2,5.01,000.00,028.7,027.5,000.0,037.1,030.4,14.5,0000.0,0003.13,0012.16,0001.46
2023-10-18 15:04:00,SystemResetWarning,0833.2,5.00,000.00,028.8,027.5,000.0,037.1,030.4,14.4,0000.0,0003.08,0012.03,0001.44
2023-10-18 15:05:00,SystemResetWarning,0833.2,5.01,000.00,028.8,027.5,000.0,037.1,030.4,14.5,0000.0,0003.01,0012.05,0001.43
2023-10-18 15:06:00,SystemResetWarning,0833.1,4.99,000.00,028.8,027.5,000.0,037.1,030.4,14.4,0000.0,0002.94,0012.60,0001.43
2023-10-18 15:07:00,SystemResetWarning,0833.1,5.00,000.00,028.8,027.6,000.0,037.1,030.4,14.4,0000.0,0002.82,0012.51,0001.42
2023-10-18 15:08:00,SystemResetWarning,0833.1,4.99,000.00,028.8,027.6,000.0,037.2,030.5,14.4,0000.0,0002.79,0012.87,0001.42
2023-10-18 15:09:00,SystemResetWarning,0833.1,5.00,000.00,028.8,027.6,000.0,037.1,030.5,14.5,0000.0,0002.82,0012.84,0001.44
2023-10-18 15:10:00,SystemResetWarning,0833.3,5.00,000.00,028.8,027.6,000.0,037.2,030.5,14.6,0000.0,0002.78,0012.14,0001.46
2023-10-18 15:11:00,SystemResetWarning,0833.2,5.00,000.00,028.9,027.6,000.0,037.2,030.5,14.8,0000.0,0002.79,0012.24,0001.47
2023-10-18 15:12:00,SystemResetWarning,0833.4,5.00,000.00,028.9,027.6,000.0,037.2,030.5,14.8,0000.0,0002.74,0012.68,0001.48
2023-10-18 15:13:00,SystemResetWarning,0833.1,5.00,000.00,028.9,027.6,000.0,037.2,030.5,14.8,0000.0,0002.70,0012.05,0001.48
2023-10-18 15:14:00,SystemResetWarning,0833.2,5.00,000.00,028.9,027.6,000.0,037.2,030.5,14.8,0000.0,0002.74,0012.07,0001.48
2023-10-18 15:15:00,SystemResetWarning,0833.2,5.00,000.00,028.9,027.7,000.0,037.2,030.5,14.9,0000.0,0002.76,0012.13,0001.49
2023-10-18 15:16:00,SystemResetWarning,0833.0,5.01,000.00,028.9,027.7,000.0,037.3,030.6,14.9,0000.0,0002.71,0011.24,0001.48
2023-10-18 15:17:00,SystemResetWarning,0833.1,5.00,000.00,028.9,027.7,000.0,037.3,030.6,14.9,0000.0,0002.71,0010.67,0001.47
2023-10-18 15:18:00,SystemResetWarning,0833.3,5.00,000.00,028.9,027.7,000.0,037.3,030.6,14.8,0000.0,0002.76,0009.99,0001.48
2023-10-18 15:19:00,SystemResetWarning,0833.2,5.00,000.00,029.0,027.7,000.0,037.3,030.6,14.8,0000.0,0002.82,0010.56,0001.48
2023-10-18 15:20:00,SystemResetWarning,0833.3,5.00,000.00,029.0,027.7,000.0,037.3,030.6,14.8,0000.0,0002.87,0010.23,0001.47
2023-10-18 15:21:00,SystemResetWarning,0833.0,5.00,000.00,029.0,027.7,000.0,037.3,030.6,14.7,0000.0,0002.95,0010.35,0001.48
2023-10-18 15:22:00,SystemResetWarning,0833.2,5.00,000.00,029.0,027.7,000.0,037.3,030.6,14.6,0000.0,0003.00,0010.84,0001.50
2023-10-18 15:23:00,SystemResetWarning,0833.0,5.00,000.00,029.0,027.7,000.0,037.3,030.6,14.7,0000.0,0003.05,0011.07,0001.48
2023-10-18 15:24:00,SystemResetWarning,0833.2,5.00,000.00,029.0,027.7,000.0,037.4,030.6,14.7,0000.0,0003.08,0011.12,0001.48
2023-10-18 15:25:00,SystemResetWarning,0833.4,5.00,000.00,029.0,027.7,000.0,037.4,030.6,14.6,0000.0,0003.06,0011.18,0001.49
2023-10-18 15:26:00,SystemResetWarning,0833.2,5.00,000.00,029.0,027.7,000.0,037.4,030.7,14.8,0000.0,0003.15,0011.60,0001.51
2023-10-18 15:27:00,SystemResetWarning,0833.2,5.00,000.00,029.0,027.7,000.0,037.4,030.6,14.9,0000.0,0003.21,0012.30,0001.51
2023-10-18 15:28:00,SystemResetWarning,0833.0,5.00,000.00,029.0,027.7,000.0,037.4,030.7,15.0,0000.0,0003.22,0012.71,0001.52
2023-10-18 15:29:00,SystemResetWarning,0833.0,5.01,000.00,029.0,027.7,000.0,037.4,030.7,14.9,0000.0,0003.25,0012.71,0001.52
2023-10-18 15:30:00,SystemResetWarning,0833.0,5.00,000.00,029.0,027.7,000.0,037.4,030.7,14.9,0000.0,0003.27,0012.20,0001.54
2023-10-18 15:31:00,SystemResetWarning,0833.0,5.00,000.00,029.1,027.7,000.0,037.4,030.7,14.9,0000.0,0003.26,0011.71,0001.56
2023-10-18 15:32:00,SystemResetWarning,0833.2,5.00,000.00,029.1,027.7,000.0,037.4,030.7,15.0,0000.0,0003.23,0011.59,0001.58
2023-10-18 15:33:00,SystemResetWarning,0833.4,5.00,000.00,029.1,027.8,000.0,037.4,030.7,14.9,0000.0,0003.21,0012.13,0001.58
2023-10-18 15:34:00,SystemResetWarning,0833.0,5.00,000.00,029.1,027.8,000.0,037.5,030.7,14.6,0000.0,0003.25,0012.64,0001.62
2023-10-18 15:35:00,SystemResetWarning,0833.2,5.01,000.00,029.1,027.8,000.0,037.5,030.7,14.6,0000.0,0003.25,0012.28,0001.63
2023-10-18 15:36:00,SystemResetWarning,0833.2,5.00,000.00,029.1,027.8,000.0,037.5,030.7,14.6,0000.0,0003.28,0013.77,0001.65
2023-10-18 15:37:00,SystemResetWarning,0833.2,4.99,000.00,029.1,027.8,000.0,037.5,030.8,14.6,0000.0,0003.29,0014.23,0001.67
2023-10-18 15:38:00,SystemResetWarning,0833.2,5.00,000.00,029.1,027.8,000.0,037.5,030.7,14.5,0000.0,0003.29,0014.34,0001.69
2023-10-18 15:39:00,SystemResetWarning,0833.2,5.00,000.00,029.1,027.8,000.0,037.5,030.7,14.6,0000.0,0003.35,0014.42,0001.72
2023-10-18 15:40:00,SystemResetWarning,0833.2,5.00,000.00,029.1,027.8,000.0,037.5,030.8,14.8,0000.0,0003.38,0014.50,0001.76
2023-10-18 15:41:00,SystemResetWarning,0833.2,4.99,000.00,029.1,027.8,000.0,037.5,030.8,14.8,0000.0,0003.36,0015.39,0001.77
2023-10-18 15:42:00,SystemResetWarning,0833.2,5.00,000.00,029.1,027.8,000.0,037.5,030.8,14.9,0000.0,0003.42,0016.63,0001.77
2023-10-18 15:43:00,SystemResetWarning,0833.2,5.00,000.00,029.2,027.8,000.0,037.5,030.8,14.8,0000.0,0003.48,0016.81,0001.80
2023-10-18 15:44:00,SystemResetWarning,0833.2,5.00,000.00,029.2,027.8,000.0,037.5,030.8,14.9,0000.0,0003.49,0016.05,0001.81
2023-10-18 15:45:00,SystemResetWarning,0833.2,4.99,000.00,029.2,027.8,000.0,037.5,030.8,14.6,0000.0,0003.48,0014.92,0001.80
2023-10-18 15:46:00,SystemResetWarning,0833.2,5.00,000.00,029.2,027.8,000.0,037.5,030.8,14.6,0000.0,0003.54,0014.86,0001.83
2023-10-18 15:47:00,SystemResetWarning,0833.2,5.00,000.00,029.2,027.8,000.0,037.5,030.8,14.6,0000.0,0003.53,0013.35,0001.87
2023-10-18 15:48:00,SystemResetWarning,0833.2,5.00,000.00,029.2,027.8,000.0,037.5,030.8,14.7,0000.0,0003.57,0012.55,0001.88
2023-10-18 15:49:00,SystemResetWarning,0833.2,5.00,000.00,029.2,027.8,000.0,037.6,030.8,14.7,0000.0,0003.59,0012.01,0001.91
2023-10-18 15:50:00,SystemResetWarning,0833.2,5.01,000.00,029.2,027.8,000.0,037.6,030.8,14.5,0000.0,0003.62,0012.07,0001.94
2023-10-18 15:51:00,SystemResetWarning,0833.2,5.00,000.00,029.2,027.8,000.0,037.6,030.8,14.6,0000.0,0003.60,0012.12,0001.96
2023-10-18 15:52:00,SystemResetWarning,0833.2,5.00,000.00,029.2,027.9,000.0,037.6,030.9,14.6,0000.0,0003.62,0011.72,0001.98
2023-10-18 15:53:00,SystemResetWarning,0833.2,5.00,000.00,029.2,027.9,000.0,037.6,030.9,14.5,0000.0,0003.65,0010.98,0002.02
2023-10-18 15:54:00,SystemResetWarning,0833.2,5.00,000.00,029.2,027.9,000.0,037.6,030.9,14.6,0000.0,0003.65,0010.98,0002.02
2023-10-18 15:55:00,SystemResetWarning,0833.1,5.00,000.00,029.2,027.9,000.0,037.6,030.9,14.7,0000.0,0003.67,0011.21,0002.06
2023-10-18 15:56:00,SystemResetWarning,0833.2,5.00,000.00,029.2,027.9,000.0,037.6,030.9,14.8,0000.0,0003.68,0011.73,0002.11
2023-10-18 15:57:00,SystemResetWarning,0833.2,5.00,000.00,029.3,027.9,000.0,037.6,030.9,14.9,0000.0,0003.67,0011.81,0002.14
2023-10-18 15:58:00,SystemResetWarning,0833.2,5.00,000.00,029.3,027.9,000.0,037.6,030.9,15.2,0000.0,0003.77,0013.36,0002.13
2023-10-18 15:59:00,SystemResetWarning,0833.2,4.99,000.00,029.3,027.9,000.0,037.6,030.9,15.3,0000.0,0003.75,0013.73,0002.13
